| time (UTC) | temp F | wind direction | speed MPH | gust MPH | rain 1hr in | rain 24hr in | rain mn in | humidity % | barometer mb |
| 20260506120447 | 75 | 171 | 0.0 | 1.0 | 0.00 | 0.00 | 0.00 | 95 | 1009.2 |
| 20260506115925 | 75 | 171 | 0.0 | 1.0 | 0.00 | 0.00 | 0.00 | 95 | 1009.2 |
| 20260506115406 | 75 | 171 | 0.0 | 0.0 | 0.00 | 0.00 | 0.00 | 95 | 1009.1 |
| 20260506114842 | 75 | 171 | 0.0 | 0.0 | 0.00 | 0.00 | 0.00 | 95 | 1009.0 |
| 20260506114343 | 75 | 171 | 0.0 | 1.0 | 0.00 | 0.00 | 0.00 | 95 | 1009.0 |
| 20260506114101 | 75 | 171 | 0.0 | 2.0 | 0.00 | 0.00 | 0.00 | 95 | 1009.0 |
| 20260506113313 | 75 | 171 | 0.0 | 2.0 | 0.00 | 0.00 | 0.00 | 95 | 1008.9 |
| 20260506112810 | 75 | 171 | 0.0 | 1.0 | 0.00 | 0.00 | 0.00 | 95 | 1008.8 |
| 20260506112311 | 75 | 171 | 0.0 | 4.0 | 0.00 | 0.00 | 0.00 | 95 | 1008.7 |
| 20260506112030 | 75 | 171 | 1.0 | 4.0 | 0.00 | 0.00 | 0.00 | 95 | 1008.6 |
| 20260506111756 | 75 | 133 | 1.0 | 4.0 | 0.00 | 0.00 | 0.00 | 95 | 1008.5 |
| 20260506110808 | 75 | 165 | 1.0 | 5.0 | 0.00 | 0.00 | 0.00 | 94 | 1008.4 |
| 20260506110243 | 75 | 169 | 0.0 | 3.0 | 0.00 | 0.00 | 0.00 | 94 | 1008.3 |
| 20260506105718 | 75 | 195 | 1.0 | 3.0 | 0.00 | 0.00 | 0.00 | 94 | 1008.2 |
| 20260506105220 | 75 | 196 | 1.0 | 4.0 | 0.00 | 0.00 | 0.00 | 94 | 1008.2 |
| 20260506104719 | 75 | 194 | 1.0 | 4.0 | 0.00 | 0.00 | 0.00 | 94 | 1008.1 |
| 20260506104218 | 75 | 178 | 1.0 | 4.0 | 0.00 | 0.00 | 0.00 | 94 | 1008.1 |
| 20260506103717 | 75 | 179 | 1.0 | 4.0 | 0.00 | 0.00 | 0.00 | 93 | 1008.2 |
| 20260506103154 | 76 | 165 | 1.0 | 4.0 | 0.00 | 0.00 | 0.00 | 93 | 1008.2 |
| 20260506102653 | 76 | 163 | 2.0 | 5.0 | 0.00 | 0.00 | 0.00 | 94 | 1008.2 |
| 20260506102142 | 76 | 174 | 2.0 | 6.0 | 0.00 | 0.00 | 0.00 | 93 | 1008.1 |
| 20260506101839 | 76 | 165 | 2.0 | 6.0 | 0.00 | 0.00 | 0.00 | 93 | 1008.1 |
| 20260506101057 | 76 | 189 | 2.0 | 4.0 | 0.00 | 0.00 | 0.00 | 93 | 1008.2 |
| 20260506100556 | 76 | 187 | 2.0 | 4.0 | 0.00 | 0.00 | 0.00 | 93 | 1008.2 |
| 20260506100057 | 76 | 177 | 1.0 | 3.0 | 0.00 | 0.00 | 0.00 | 93 | 1008.2 |
| 20260506095537 | 76 | 193 | 1.0 | 5.0 | 0.00 | 0.00 | 0.00 | 93 | 1008.1 |
| 20260506095009 | 76 | 172 | 1.0 | 6.0 | 0.00 | 0.00 | 0.00 | 93 | 1008.1 |
| 20260506094442 | 76 | 196 | 1.0 | 6.0 | 0.00 | 0.00 | 0.00 | 93 | 1008.0 |
| 20260506093941 | 76 | 262 | 1.0 | 5.0 | 0.00 | 0.00 | 0.00 | 93 | 1007.9 |
| 20260506093418 | 76 | 160 | 2.0 | 7.0 | 0.00 | 0.00 | 0.00 | 92 | 1007.9 |
| 20260506092908 | 76 | 153 | 2.0 | 7.0 | 0.00 | 0.00 | 0.00 | 92 | 1007.8 |
| 20260506092408 | 76 | 161 | 2.0 | 5.0 | 0.00 | 0.00 | 0.00 | 92 | 1007.7 |
| 20260506091908 | 76 | 152 | 1.0 | 5.0 | 0.00 | 0.00 | 0.00 | 92 | 1007.7 |
| 20260506091406 | 77 | 179 | 2.0 | 4.0 | 0.00 | 0.00 | 0.00 | 92 | 1007.7 |
| 20260506091109 | 77 | 148 | 3.0 | 11.0 | 0.00 | 0.00 | 0.00 | 92 | 1007.7 |
| 20260506090605 | 77 | 201 | 3.0 | 11.0 | 0.00 | 0.00 | 0.00 | 92 | 1007.7 |
| 20260506090038 | 77 | 211 | 3.0 | 8.0 | 0.00 | 0.00 | 0.00 | 92 | 1007.8 |
| 20260506085256 | 77 | 212 | 2.0 | 8.0 | 0.00 | 0.00 | 0.00 | 92 | 1007.8 |
| 20260506084731 | 77 | 96 | 2.0 | 6.0 | 0.00 | 0.00 | 0.00 | 92 | 1007.9 |
| 20260506084206 | 77 | 177 | 2.0 | 4.0 | 0.00 | 0.00 | 0.00 | 92 | 1008.0 |
| 20260506083643 | 77 | 141 | 1.0 | 4.0 | 0.00 | 0.00 | 0.00 | 92 | 1007.9 |
| 20260506083122 | 77 | 186 | 2.0 | 7.0 | 0.00 | 0.00 | 0.00 | 92 | 1008.0 |
| 20260506082622 | 77 | 188 | 2.0 | 7.0 | 0.00 | 0.00 | 0.00 | 92 | 1008.0 |
| 20260506082125 | 77 | 156 | 2.0 | 5.0 | 0.00 | 0.00 | 0.00 | 92 | 1008.0 |
| 20260506081603 | 77 | 193 | 2.0 | 5.0 | 0.00 | 0.00 | 0.00 | 92 | 1008.1 |
| 20260506081039 | 77 | 180 | 1.0 | 5.0 | 0.00 | 0.00 | 0.00 | 92 | 1008.2 |
| 20260506080514 | 77 | 160 | 2.0 | 5.0 | 0.00 | 0.00 | 0.00 | 92 | 1008.3 |
| 20260506080451 | 77 | 200 | 2.0 | 5.0 | 0.00 | 0.00 | 0.00 | 92 | 1008.3 |
| 20260506073408 | 77 | 133 | 1.0 | 7.0 | 0.00 | 0.00 | 0.00 | 92 | 1008.7 |
| 20260506072841 | 77 | 168 | 2.0 | 6.0 | 0.00 | 0.00 | 0.00 | 91 | 1008.7 |
| 20260506072325 | 77 | 161 | 2.0 | 6.0 | 0.00 | 0.00 | 0.00 | 91 | 1008.8 |
| 20260506071825 | 77 | 190 | 2.0 | 6.0 | 0.00 | 0.00 | 0.00 | 91 | 1008.9 |
| 20260506071549 | 77 | 132 | 1.0 | 6.0 | 0.00 | 0.00 | 0.00 | 91 | 1008.8 |
| 20260506071256 | 77 | 184 | 2.0 | 7.0 | 0.00 | 0.00 | 0.00 | 91 | 1008.9 |
| 20260506070914 | 77 | 178 | 1.0 | 6.0 | 0.00 | 0.00 | 0.00 | 91 | 1008.9 |
| 20260506062214 | 77 | 125 | 2.0 | 8.0 | 0.00 | 0.00 | 0.00 | 91 | 1008.9 |
| 20260506061713 | 77 | 171 | 2.0 | 7.0 | 0.00 | 0.00 | 0.00 | 91 | 1008.9 |
| 20260506061150 | 77 | 188 | 3.0 | 9.0 | 0.00 | 0.00 | 0.00 | 91 | 1009.0 |
| 20260506060636 | 77 | 172 | 2.0 | 9.0 | 0.00 | 0.00 | 0.00 | 91 | 1009.0 |
| 20260506051340 | 78 | 174 | 2.0 | 7.0 | 0.00 | 0.00 | 0.00 | 90 | 1009.0 |
| 20260506050818 | 78 | 200 | 2.0 | 7.0 | 0.00 | 0.00 | 0.00 | 89 | 1009.1 |
| 20260506050317 | 78 | 194 | 1.0 | 6.0 | 0.00 | 0.00 | 0.00 | 89 | 1009.2 |
| 20260506044746 | 78 | 158 | 2.0 | 9.0 | 0.00 | 0.00 | 0.00 | 88 | 1008.9 |
| 20260506044218 | 78 | 167 | 2.0 | 7.0 | 0.00 | 0.00 | 0.00 | 88 | 1008.8 |
| 20260506043938 | 78 | 194 | 2.0 | 7.0 | 0.00 | 0.00 | 0.00 | 88 | 1008.9 |
| 20260506043410 | 78 | 173 | 2.0 | 9.0 | 0.00 | 0.00 | 0.00 | 88 | 1009.0 |
| 20260506043134 | 78 | 170 | 1.0 | 9.0 | 0.00 | 0.00 | 0.00 | 88 | 1009.1 |
| 20260506042353 | 78 | 160 | 1.0 | 5.0 | 0.00 | 0.00 | 0.00 | 88 | 1009.0 |
| 20260506041632 | 78 | 203 | 2.0 | 6.0 | 0.00 | 0.00 | 0.00 | 88 | 1008.9 |
| 20260506041104 | 78 | 186 | 2.0 | 6.0 | 0.00 | 0.00 | 0.00 | 88 | 1008.9 |
| 20260506040601 | 78 | 214 | 2.0 | 6.0 | 0.00 | 0.00 | 0.00 | 88 | 1008.9 |
| 20260506040034 | 78 | 185 | 2.0 | 6.0 | 0.00 | 0.00 | 0.00 | 88 | 1008.9 |
| 20260506035756 | 78 | 148 | 2.0 | 5.0 | 0.00 | 0.00 | 0.00 | 88 | 1008.8 |
| 20260506035026 | 78 | 118 | 1.0 | 6.0 | 0.00 | 0.00 | 0.00 | 88 | 1008.7 |
| 20260506034522 | 78 | 202 | 1.0 | 6.0 | 0.00 | 0.00 | 0.00 | 87 | 1008.5 |
| 20260506034013 | 78 | 136 | 2.0 | 4.0 | 0.00 | 0.00 | 0.00 | 87 | 1008.5 |
| 20260506033446 | 78 | 146 | 2.0 | 6.0 | 0.00 | 0.00 | 0.00 | 87 | 1008.6 |
| 20260506032943 | 78 | 117 | 1.0 | 4.0 | 0.00 | 0.00 | 0.00 | 87 | 1008.6 |
| 20260506032418 | 79 | 225 | 1.0 | 5.0 | 0.00 | 0.00 | 0.00 | 87 | 1008.4 |
| 20260506031912 | 79 | 196 | 2.0 | 7.0 | 0.00 | 0.00 | 0.00 | 87 | 1008.5 |
| 20260506031408 | 79 | 237 | 2.0 | 7.0 | 0.00 | 0.00 | 0.00 | 87 | 1008.4 |
| 20260506030844 | 79 | 180 | 3.0 | 8.0 | 0.00 | 0.00 | 0.00 | 87 | 1008.3 |
| 20260506030323 | 79 | 187 | 2.0 | 9.0 | 0.00 | 0.00 | 0.00 | 87 | 1008.3 |
| 20260506025802 | 79 | 105 | 2.0 | 9.0 | 0.00 | 0.00 | 0.00 | 87 | 1008.2 |
| 20260506025305 | 79 | 148 | 2.0 | 8.0 | 0.00 | 0.00 | 0.00 | 87 | 1008.1 |
| 20260506024737 | 79 | 146 | 2.0 | 5.0 | 0.00 | 0.00 | 0.00 | 86 | 1008.0 |
| 20260506024233 | 79 | 208 | 2.0 | 7.0 | 0.00 | 0.00 | 0.00 | 86 | 1007.9 |
| 20260506023707 | 79 | 147 | 2.0 | 7.0 | 0.00 | 0.00 | 0.00 | 86 | 1007.7 |
| 20260506023203 | 79 | 194 | 3.0 | 10.0 | 0.00 | 0.00 | 0.00 | 86 | 1007.6 |
| 20260506022637 | 79 | 252 | 3.0 | 10.0 | 0.00 | 0.00 | 0.00 | 86 | 1007.5 |
| 20260506022112 | 79 | 190 | 3.0 | 9.0 | 0.00 | 0.00 | 0.00 | 86 | 1007.5 |
| 20260506021542 | 79 | 194 | 3.0 | 15.0 | 0.00 | 0.00 | 0.00 | 85 | 1007.5 |
| 20260506021234 | 79 | 210 | 2.0 | 15.0 | 0.00 | 0.00 | 0.00 | 85 | 1007.5 |
| 20260506020512 | 79 | 180 | 2.0 | 6.0 | 0.00 | 0.00 | 0.00 | 85 | 1007.5 |
| 20260506020009 | 79 | 175 | 1.0 | 3.0 | 0.00 | 0.00 | 0.00 | 85 | 1007.4 |
| 20260506015506 | 79 | 157 | 2.0 | 7.0 | 0.00 | 0.00 | 0.00 | 85 | 1007.3 |
| 20260506015220 | 79 | 193 | 1.0 | 7.0 | 0.00 | 0.00 | 0.00 | 85 | 1007.3 |
| 20260506014456 | 80 | 157 | 2.0 | 7.0 | 0.00 | 0.00 | 0.00 | 84 | 1007.3 |
| 20260506013932 | 80 | 195 | 2.0 | 7.0 | 0.00 | 0.00 | 0.00 | 84 | 1007.2 |
| 20260506013847 | 80 | 176 | 2.0 | 7.0 | 0.00 | 0.00 | 0.00 | 84 | 1007.1 |
| 20260506012854 | 80 | 154 | 2.0 | 7.0 | 0.00 | 0.00 | 0.00 | 84 | 1007.0 |
| 20260506012352 | 80 | 178 | 2.0 | 8.0 | 0.00 | 0.00 | 0.00 | 84 | 1007.0 |
| 20260506011825 | 80 | 145 | 2.0 | 9.0 | 0.00 | 0.00 | 0.00 | 84 | 1006.9 |
| 20260506011321 | 80 | 142 | 2.0 | 9.0 | 0.00 | 0.00 | 0.00 | 84 | 1006.7 |
| 20260506010818 | 80 | 168 | 2.0 | 9.0 | 0.00 | 0.00 | 0.00 | 83 | 1006.6 |
| 20260506010316 | 80 | 170 | 1.0 | 5.0 | 0.00 | 0.00 | 0.00 | 83 | 1006.6 |
| 20260506005803 | 80 | 194 | 2.0 | 8.0 | 0.00 | 0.00 | 0.00 | 83 | 1006.6 |
| 20260506005306 | 80 | 182 | 2.0 | 8.0 | 0.00 | 0.00 | 0.00 | 83 | 1006.6 |
| 20260506005003 | 81 | 161 | 2.0 | 9.0 | 0.00 | 0.00 | 0.00 | 83 | 1006.5 |
| 20260506004442 | 81 | 151 | 3.0 | 9.0 | 0.00 | 0.00 | 0.00 | 82 | 1006.5 |
| 20260506003717 | 81 | 130 | 3.0 | 7.0 | 0.00 | 0.00 | 0.00 | 82 | 1006.4 |
| 20260506003152 | 81 | 140 | 2.0 | 6.0 | 0.00 | 0.00 | 0.00 | 82 | 1006.5 |
| 20260506002624 | 81 | 141 | 2.0 | 8.0 | 0.00 | 0.00 | 0.00 | 81 | 1006.5 |
| 20260506002121 | 81 | 198 | 2.0 | 6.0 | 0.00 | 0.00 | 0.00 | 81 | 1006.4 |
| 20260506001619 | 81 | 186 | 2.0 | 7.0 | 0.00 | 0.00 | 0.00 | 81 | 1006.4 |
| 20260506001116 | 82 | 177 | 3.0 | 9.0 | 0.00 | 0.00 | 0.00 | 80 | 1006.3 |
| 20260506000817 | 82 | 171 | 3.0 | 9.0 | 0.00 | 0.00 | 0.00 | 80 | 1006.2 |
| 20260506000504 | 82 | 172 | 2.0 | 9.0 | 0.00 | 0.00 | 0.00 | 80 | 1006.4 |
| 20260505235520 | 82 | 180 | 3.0 | 9.0 | 0.00 | 0.00 | 0.00 | 80 | 1006.3 |
| 20260505234953 | 82 | 172 | 3.0 | 9.0 | 0.00 | 0.00 | 0.00 | 80 | 1006.3 |
| 20260505234426 | 82 | 174 | 3.0 | 9.0 | 0.00 | 0.00 | 0.00 | 79 | 1006.4 |
| 20260505234146 | 82 | 147 | 3.0 | 7.0 | 0.00 | 0.00 | 0.00 | 80 | 1006.3 |
| 20260505233358 | 83 | 159 | 2.0 | 8.0 | 0.00 | 0.00 | 0.00 | 80 | 1006.2 |
| 20260505233057 | 83 | 144 | 2.0 | 8.0 | 0.00 | 0.00 | 0.00 | 80 | 1006.3 |
| 20260505232531 | 83 | 209 | 2.0 | 8.0 | 0.00 | 0.00 | 0.00 | 80 | 1006.3 |
| 20260505231738 | 83 | 186 | 2.0 | 8.0 | 0.00 | 0.00 | 0.00 | 80 | 1006.2 |
| 20260505231236 | 83 | 144 | 2.0 | 8.0 | 0.00 | 0.00 | 0.00 | 80 | 1006.2 |
| 20260505230954 | 83 | 165 | 2.0 | 8.0 | 0.00 | 0.00 | 0.00 | 79 | 1006.3 |
| 20260505230230 | 83 | 197 | 3.0 | 8.0 | 0.00 | 0.00 | 0.00 | 79 | 1006.3 |
| 20260505225702 | 83 | 156 | 4.0 | 10.0 | 0.00 | 0.00 | 0.00 | 79 | 1006.4 |
| 20260505225200 | 83 | 132 | 3.0 | 8.0 | 0.00 | 0.00 | 0.00 | 79 | 1006.3 |
| 20260505224632 | 83 | 198 | 3.0 | 7.0 | 0.00 | 0.00 | 0.00 | 79 | 1006.2 |
| 20260505224129 | 83 | 159 | 4.0 | 12.0 | 0.00 | 0.00 | 0.00 | 79 | 1006.3 |
| 20260505223611 | 83 | 146 | 4.0 | 12.0 | 0.00 | 0.00 | 0.00 | 79 | 1006.2 |
| 20260505223111 | 83 | 209 | 4.0 | 9.0 | 0.00 | 0.00 | 0.00 | 79 | 1006.3 |
| 20260505222831 | 83 | 157 | 4.0 | 9.0 | 0.00 | 0.00 | 0.00 | 78 | 1006.3 |
| 20260505222306 | 83 | 208 | 3.0 | 12.0 | 0.00 | 0.00 | 0.00 | 79 | 1006.3 |
| 20260505221520 | 83 | 148 | 4.0 | 12.0 | 0.00 | 0.00 | 0.00 | 78 | 1006.3 |
| 20260505221018 | 83 | 194 | 3.0 | 10.0 | 0.00 | 0.00 | 0.00 | 78 | 1006.4 |
| 20260505220937 | 84 | 157 | 3.0 | 11.0 | 0.00 | 0.00 | 0.00 | 78 | 1006.4 |
| 20260505215947 | 84 | 171 | 3.0 | 11.0 | 0.00 | 0.00 | 0.00 | 79 | 1006.5 |
| 20260505215421 | 84 | 144 | 3.0 | 9.0 | 0.00 | 0.00 | 0.00 | 80 | 1006.6 |
| 20260505215114 | 84 | 159 | 3.0 | 7.0 | 0.00 | 0.00 | 0.00 | 79 | 1006.7 |
| 20260505214352 | 84 | 126 | 3.0 | 13.0 | 0.00 | 0.00 | 0.00 | 79 | 1006.7 |
| 20260505213826 | 84 | 117 | 3.0 | 12.0 | 0.00 | 0.00 | 0.00 | 78 | 1006.9 |
| 20260505213529 | 84 | 211 | 3.0 | 12.0 | 0.00 | 0.00 | 0.00 | 78 | 1006.9 |
| 20260505212731 | 84 | 207 | 3.0 | 8.0 | 0.00 | 0.00 | 0.00 | 79 | 1006.9 |
| 20260505212205 | 84 | 198 | 3.0 | 8.0 | 0.00 | 0.00 | 0.00 | 79 | 1006.9 |
| 20260505211701 | 84 | 217 | 3.0 | 7.0 | 0.00 | 0.00 | 0.00 | 79 | 1006.9 |
| 20260505211158 | 84 | 127 | 3.0 | 9.0 | 0.00 | 0.00 | 0.00 | 78 | 1007.0 |
| 20260505210655 | 84 | 193 | 3.0 | 9.0 | 0.00 | 0.00 | 0.00 | 78 | 1007.1 |
| 20260505210151 | 85 | 189 | 3.0 | 8.0 | 0.00 | 0.00 | 0.00 | 78 | 1007.1 |
| 20260505205624 | 85 | 172 | 2.0 | 7.0 | 0.00 | 0.00 | 0.00 | 78 | 1007.1 |
| 20260505205345 | 85 | 196 | 2.0 | 6.0 | 0.00 | 0.00 | 0.00 | 77 | 1007.2 |
| 20260505204618 | 85 | 214 | 3.0 | 9.0 | 0.00 | 0.00 | 0.00 | 78 | 1007.2 |
| 20260505204115 | 85 | 178 | 3.0 | 9.0 | 0.00 | 0.00 | 0.00 | 77 | 1007.3 |
| 20260505203551 | 85 | 180 | 3.0 | 9.0 | 0.00 | 0.00 | 0.00 | 77 | 1007.4 |
| 20260505203023 | 85 | 175 | 3.0 | 9.0 | 0.00 | 0.00 | 0.00 | 77 | 1007.4 |
| 20260505202521 | 85 | 227 | 3.0 | 8.0 | 0.00 | 0.00 | 0.00 | 77 | 1007.4 |
| 20260505201954 | 85 | 136 | 3.0 | 8.0 | 0.00 | 0.00 | 0.00 | 77 | 1007.6 |
| 20260505201427 | 84 | 264 | 3.0 | 10.0 | 0.00 | 0.00 | 0.00 | 78 | 1007.7 |
| 20260505200902 | 84 | 130 | 3.0 | 12.0 | 0.00 | 0.00 | 0.00 | 78 | 1007.8 |
| 20260505200600 | 84 | 153 | 3.0 | 12.0 | 0.00 | 0.00 | 0.00 | 77 | 1008.0 |
| 20260505200034 | 84 | 137 | 3.0 | 6.0 | 0.00 | 0.00 | 0.00 | 78 | 1008.0 |
| 20260505195243 | 84 | 188 | 3.0 | 10.0 | 0.00 | 0.00 | 0.00 | 79 | 1008.1 |
| 20260505194853 | 84 | 159 | 3.0 | 7.0 | 0.00 | 0.00 | 0.00 | 79 | 1008.2 |
| 20260505194742 | 84 | 184 | 3.0 | 9.0 | 0.00 | 0.00 | 0.00 | 80 | 1008.1 |
| 20260505193646 | 84 | 174 | 3.0 | 7.0 | 0.00 | 0.00 | 0.00 | 80 | 1008.3 |
| 20260505193142 | 84 | 167 | 3.0 | 8.0 | 0.00 | 0.00 | 0.00 | 80 | 1008.3 |
| 20260505192640 | 83 | 226 | 3.0 | 8.0 | 0.00 | 0.00 | 0.00 | 80 | 1008.3 |
| 20260505192137 | 84 | 149 | 2.0 | 6.0 | 0.00 | 0.00 | 0.00 | 78 | 1008.4 |
| 20260505191611 | 84 | 182 | 2.0 | 6.0 | 0.00 | 0.00 | 0.00 | 79 | 1008.2 |
| 20260505191044 | 84 | 70 | 3.0 | 7.0 | 0.00 | 0.00 | 0.00 | 78 | 1008.3 |
| 20260505190542 | 85 | 175 | 2.0 | 7.0 | 0.00 | 0.00 | 0.00 | 77 | 1008.4 |
| 20260505190012 | 85 | 188 | 2.0 | 9.0 | 0.00 | 0.00 | 0.00 | 78 | 1008.4 |
| 20260505185716 | 84 | 150 | 3.0 | 9.0 | 0.00 | 0.00 | 0.00 | 80 | 1008.4 |
| 20260505184920 | 83 | 207 | 3.0 | 8.0 | 0.00 | 0.00 | 0.00 | 80 | 1008.5 |
| 20260505184417 | 83 | 220 | 3.0 | 7.0 | 0.00 | 0.00 | 0.00 | 81 | 1008.5 |
| 20260505183850 | 82 | 188 | 3.0 | 7.0 | 0.00 | 0.00 | 0.00 | 81 | 1008.6 |
| 20260505183346 | 82 | 176 | 3.0 | 7.0 | 0.00 | 0.00 | 0.00 | 81 | 1008.6 |
| 20260505183101 | 83 | 175 | 3.0 | 9.0 | 0.00 | 0.00 | 0.00 | 81 | 1008.7 |
| 20260505182342 | 83 | 168 | 2.0 | 9.0 | 0.00 | 0.00 | 0.00 | 81 | 1008.6 |
| 20260505181814 | 82 | 171 | 2.0 | 10.0 | 0.00 | 0.00 | 0.00 | 83 | 1008.7 |
| 20260505181311 | 81 | 184 | 2.0 | 10.0 | 0.00 | 0.00 | 0.00 | 83 | 1008.8 |
| 20260505181004 | 81 | 200 | 2.0 | 6.0 | 0.00 | 0.00 | 0.00 | 83 | 1008.8 |
| 20260505180242 | 81 | 155 | 3.0 | 7.0 | 0.00 | 0.00 | 0.00 | 82 | 1008.8 |
| 20260505175714 | 81 | 178 | 2.0 | 7.0 | 0.00 | 0.00 | 0.00 | 83 | 1008.7 |
| 20260505175212 | 81 | 186 | 2.0 | 7.0 | 0.00 | 0.00 | 0.00 | 84 | 1008.8 |
| 20260505174644 | 81 | 200 | 2.0 | 7.0 | 0.00 | 0.00 | 0.00 | 84 | 1008.9 |
| 20260505174142 | 80 | 222 | 2.0 | 7.0 | 0.00 | 0.00 | 0.00 | 84 | 1009.0 |
| 20260505174104 | 80 | 172 | 2.0 | 5.0 | 0.00 | 0.00 | 0.00 | 84 | 1009.0 |
| 20260505173048 | 80 | 288 | 3.0 | 9.0 | 0.00 | 0.00 | 0.00 | 84 | 1009.0 |
| 20260505172806 | 80 | 38 | 2.0 | 9.0 | 0.00 | 0.00 | 0.00 | 84 | 1009.1 |
| 20260505172033 | 80 | 236 | 2.0 | 7.0 | 0.00 | 0.00 | 0.00 | 86 | 1009.2 |
| 20260505171536 | 80 | 209 | 2.0 | 7.0 | 0.00 | 0.00 | 0.00 | 87 | 1009.2 |
| 20260505171008 | 79 | 188 | 2.0 | 6.0 | 0.00 | 0.00 | 0.00 | 88 | 1009.1 |
| 20260505170729 | 79 | 162 | 2.0 | 7.0 | 0.00 | 0.00 | 0.00 | 88 | 1009.3 |
| 20260505165941 | 78 | 231 | 2.0 | 7.0 | 0.00 | 0.00 | 0.00 | 87 | 1009.4 |
| 20260505165632 | 79 | 145 | 2.0 | 6.0 | 0.00 | 0.00 | 0.00 | 87 | 1009.4 |
| 20260505164910 | 79 | 173 | 2.0 | 6.0 | 0.00 | 0.00 | 0.00 | 86 | 1009.4 |
| 20260505164406 | 79 | 180 | 2.0 | 8.0 | 0.00 | 0.00 | 0.00 | 86 | 1009.3 |
| 20260505163904 | 79 | 196 | 3.0 | 8.0 | 0.00 | 0.00 | 0.00 | 86 | 1009.3 |
| 20260505163336 | 79 | 190 | 2.0 | 8.0 | 0.00 | 0.00 | 0.00 | 86 | 1009.4 |
| 20260505162833 | 79 | 204 | 2.0 | 6.0 | 0.00 | 0.00 | 0.00 | 87 | 1009.3 |
| 20260505162307 | 79 | 182 | 2.0 | 6.0 | 0.00 | 0.00 | 0.00 | 87 | 1009.3 |
| 20260505161805 | 79 | 162 | 2.0 | 6.0 | 0.00 | 0.00 | 0.00 | 87 | 1009.2 |
| 20260505161531 | 78 | 138 | 3.0 | 7.0 | 0.00 | 0.00 | 0.00 | 87 | 1009.2 |
| 20260505160955 | 78 | 157 | 2.0 | 7.0 | 0.00 | 0.00 | 0.00 | 87 | 1009.2 |
| 20260505160231 | 78 | 269 | 2.0 | 7.0 | 0.00 | 0.00 | 0.00 | 87 | 1009.2 |
| 20260505153016 | 77 | 166 | 2.0 | 9.0 | 0.00 | 0.00 | 0.00 | 88 | 1009.1 |
| 20260505152513 | 77 | 246 | 2.0 | 9.0 | 0.00 | 0.00 | 0.00 | 88 | 1009.0 |
| 20260505151949 | 77 | 210 | 2.0 | 7.0 | 0.00 | 0.00 | 0.00 | 88 | 1009.0 |
| 20260505151420 | 77 | 157 | 2.0 | 5.0 | 0.00 | 0.00 | 0.00 | 88 | 1009.0 |
| 20260505150918 | 77 | 151 | 3.0 | 7.0 | 0.00 | 0.00 | 0.00 | 88 | 1008.9 |
| 20260505150352 | 77 | 159 | 2.0 | 9.0 | 0.00 | 0.00 | 0.00 | 88 | 1008.9 |
| 20260505140618 | 76 | 194 | 2.0 | 9.0 | 0.00 | 0.00 | 0.00 | 91 | 1008.8 |
| 20260505124838 | 73 | 206 | 2.0 | 6.0 | 0.00 | 0.00 | 0.00 | 94 | 1008.3 |
| 20260505124336 | 73 | 171 | 2.0 | 4.0 | 0.00 | 0.00 | 0.00 | 94 | 1008.3 |
| 20260505123808 | 73 | 171 | 1.0 | 4.0 | 0.00 | 0.00 | 0.00 | 94 | 1008.4 |
| 20260505123304 | 72 | 201 | 1.0 | 3.0 | 0.00 | 0.00 | 0.00 | 94 | 1008.5 |
| 20260505122740 | 72 | 209 | 2.0 | 4.0 | 0.00 | 0.00 | 0.00 | 94 | 1008.5 |
| 20260505122434 | 72 | 183 | 2.0 | 5.0 | 0.00 | 0.00 | 0.00 | 94 | 1008.4 |
| 20260505121647 | 72 | 178 | 2.0 | 5.0 | 0.00 | 0.00 | 0.00 | 94 | 1008.4 |
| 20260505121122 | 72 | 161 | 2.0 | 5.0 | 0.00 | 0.00 | 0.00 | 94 | 1008.5 |